[[{"header":{"parameterUnit":"m.s-1","parameterCategory":1,"la1":30.2991,"la2":30.254,"lo1":-89.0895,"lo2":-89.0444,"dy":0.0017,"dx":0.0017,"nx":28,"ny":28,"refTime":"2024-05-19T03:00:00:Z","depth":0,"parameterNumber":2,"parameterNumberName":"U-component_of_WINDS"},"data":[0,0,0,0,0,0,0,0,0,0,0,0,0,0,0,0,0,0,0,0,0,0,0,0,0,0,0,0,0,0,0,0,0,0,0,0,0,0,0,0,0,0,0,0,0,0,0,0,0,0,0,0,0,0,0,0,0,0,0.1215,0.1216,0,0.129,0.1291,0.1292,0.1274,0.1272,0.1271,0.1269,0.1354,0.1357,0.1361,0,0,0,0,0,0,0,0,0,0,0,0,0,0.1064,0.1067,0.1215,0.1216,0.1217,0.129,0.1291,0.1292,0.1274,0.1272,0.127,0.1269,0.1352,0.1357,0.1361,0,0,0,0,0,0,0,0,0,0,0,0,0,0.1133,0.1068,0.1215,0.1217,0.1218,0.129,0.1291,0.1292,0.1274,0.1272,0.127,0.1268,0.1351,0.1356,0.1362,0.1439,0,0,0.1378,0.1381,0,0,0,0,0,0,0,0,0.1129,0.1139,0.1216,0.1217,0.1218,0.127,0.1268,0.1342,0.1275,0.1253,0.1269,0.1267,0.1328,0.1335,0.1354,0.1443,0.1447,0.1379,0.1382,0.1384,0.1386,0,0,0,0,0,0,0,0.1125,0.1136,0.1245,0.1217,0.1218,0.1216,0.1223,0.1282,0.1302,0.1255,0.1254,0.1262,0.1328,0.1349,0.1356,0.1448,0.1378,0.1383,0.1387,0.1389,0.1603,0.1605,0,0,0,0,0,0,0.1118,0.1132,0.1243,0.1247,0.1167,0.122,0.1229,0.1256,0.1301,0.1306,0.1264,0.1261,0.1341,0.135,0.1359,0.1452,0.1384,0.1389,0.1392,0.1601,0.1603,0.1606,0,0,0,0,0,0,0.1115,0.1128,0.124,0.1189,0.1203,0.1225,0.1256,0.1258,0.1279,0.1308,0.1313,0.1281,0.134,0.1351,0.1418,0.1455,0.1392,0.1397,0.1598,0.1601,0.1605,0.1639,0,0,0,0,0,0,0.111,0.1127,0.1155,0.119,0.1206,0.1296,0.1258,0.1261,0.1287,0.1284,0.1326,0.133,0.1339,0.141,0.1424,0.1461,0.1401,0.1595,0.1599,0.1604,0.1635,0.1643,0.1651,0,0,0,0,0,0.1105,0.1164,0.1157,0.117,0.1241,0.1298,0.1308,0.1314,0.129,0.132,0.1338,0.1329,0.1448,0.1417,0.1432,0.1472,0.1592,0.1598,0.1603,0.1631,0.1642,0.165,0,0,0,0,0,0,0.1136,0.1168,0.1161,0.1232,0.1262,0.1295,0.1332,0.1325,0.1364,0.136,0.1368,0.1378,0.1446,0.1466,0.1431,0.1549,0.1517,0.1526,0.1533,0.1544,0.1551,0.1546,0.1405,0,0,0,0,0,0.1151,0.1192,0.1219,0.1279,0.1294,0.1311,0.1336,0.1337,0.137,0.1383,0.1407,0.1441,0.1486,0.1516,0.1559,0.1637,0.1646,0.1672,0.168,0.1686,0.1694,0.1736,0.1748,0.1624,0.1624,0.1624,0,0,0.1183,0.1205,0.1231,0.1286,0.1309,0.1353,0.1322,0.137,0.1403,0.1392,0.1455,0.1474,0.1513,0.1585,0.1618,0.1604,0.1729,0.1693,0.1698,0.1702,0.1743,0.1754,0.1765,0.1628,0.1627,0.1627,0,0,0.1263,0.1284,0.1335,0.1359,0.1393,0.1403,0.1416,0.1449,0.146,0.1523,0.1515,0.1556,0.1634,0.1661,0.1685,0.1773,0.1766,0.1787,0.183,0.1871,0.188,0.1889,0.1921,0.1932,0.1795,0.1795,0.1795,0,0.1298,0.1362,0.1364,0.1412,0.1437,0.1425,0.1478,0.1502,0.155,0.1568,0.155,0.1645,0.1671,0.1749,0.177,0.179,0.1806,0.1783,0.1878,0.1887,0.1895,0.1925,0.1937,0.1797,0.1797,0.1797,0.1797,0,0.1404,0.1449,0.1487,0.153,0.1559,0.161,0.1621,0.165,0.1649,0.1662,0.1727,0.1756,0.1804,0.1823,0.1824,0.1902,0.1891,0.1876,0.1845,0.1909,0.1938,0.1949,0.1801,0.18,0.1799,0.1799,0,0,0.1508,0.1549,0.1563,0.1582,0.1618,0.1654,0.1704,0.1748,0.1773,0.1807,0.185,0.1915,0.19,0.1928,0.1931,0.1967,0.2035,0.1948,0.1949,0.1963,0.2122,0.2134,0.2147,0.203,0.2032,0.2034,0.2119,0,0.1591,0.1677,0.1679,0.1759,0.18,0.1788,0.1832,0.186,0.1873,0.1912,0.1927,0.1972,0.1949,0.1966,0.2,0.2019,0.2067,0.2013,0.2072,0.2074,0.2063,0.2162,0.2175,0.2254,0.213,0.2132,0.2133,0,0.17,0.1733,0.1816,0.1844,0.1862,0.1901,0.1941,0.1977,0.2009,0.2016,0.2045,0.2043,0.2097,0.2062,0.2137,0.21,0.2124,0.2137,0.214,0.2147,0.2108,0.2171,0.2279,0.2291,0.2151,0.215,0.2148,0,0.1767,0.1832,0.189,0.1906,0.1942,0.1969,0.1986,0.2015,0.2041,0.2077,0.2094,0.2137,0.216,0.2194,0.2205,0.2179,0.2279,0.2246,0.2287,0.2287,0.231,0.2308,0.2423,0.2325,0.2324,0.2324,0.2324,0,0.186,0.1911,0.192,0.1955,0.2012,0.2015,0.2072,0.2087,0.2113,0.2153,0.2146,0.2184,0.2195,0.2235,0.2244,0.2304,0.2315,0.2323,0.2325,0.2324,0.2323,0.234,0.2335,0.2327,0.2327,0.2326,0.2326,0,0.1945,0.1952,0.2014,0.2041,0.2049,0.209,0.2114,0.2149,0.216,0.221,0.2222,0.224,0.2287,0.23,0.2358,0.2363,0.2434,0.2431,0.2422,0.2422,0.2463,0.2459,0.2594,0.2612,0.2501,0.2502,0.2503,0,0.2003,0.2042,0.2072,0.2096,0.2113,0.2153,0.2178,0.2182,0.2209,0.2247,0.2278,0.2323,0.236,0.2436,0.2456,0.2499,0.2497,0.2541,0.2504,0.2501,0.2498,0.2496,0.25,0.2549,0.255,0.2551,0.2552,0,0.2107,0.2108,0.2144,0.218,0.221,0.224,0.2268,0.229,0.2298,0.2329,0.2375,0.2403,0.2459,0.2505,0.2548,0.2568,0.2562,0.2563,0.2575,0.2574,0.2568,0.2572,0.2442,0.256,0.2559,0.2559,0.2558,0.2558,0.2181,0.2214,0.2239,0.2279,0.23,0.2326,0.236,0.2373,0.2411,0.2455,0.2456,0.2506,0.2537,0.2594,0.2616,0.2656,0.2643,0.2661,0.2666,0.267,0.2673,0.256,0.2664,0.2664,0.2664,0.2664,0.2664,0,0.2284,0.2299,0.2335,0.2374,0.2405,0.2393,0.2423,0.2451,0.2494,0.2522,0.2556,0.2609,0.2653,0.2675,0.2719,0.2747,0.2746,0.2759,0.2757,0.2762,0.2682,0.2667,0.2759,0.2759,0.2759,0.2759,0.2759,0.2759,0.2342,0.2397,0.2401,0.2467,0.2482,0.2528,0.2547,0.2572,0.2593,0.2651,0.2686,0.2699,0.2725,0.277,0.281,0.2816,0.2833,0.2847,0.2852,0.2777,0.2767,0.2758,0.2744,0.2851,0.2851,0.2928,0.2928,0.2929]},{"header":{"parameterUnit":"m.s-1","parameterCategory":1,"la1":30.2991,"la2":30.254,"lo1":-89.0895,"lo2":-89.0444,"dy":0.0017,"dx":0.0017,"nx":28,"ny":28,"refTime":"2024-05-19T03:00:00:Z","depth":0,"parameterNumber":3,"parameterNumberName":"V-component_of_WINDS"},"data":[0,0,0,0,0,0,0,0,0,0,0,0,0,0,0,0,0,0,0,0,0,0,0,0,0,0,0,0,0,0,0,0,0,0,0,0,0,0,0,0,0,0,0,0,0,0,0,0,0,0,0,0,0,0,0,0,0,0,1.5925,1.5927,0,1.6049,1.6051,1.6052,1.6038,1.6036,1.6034,1.6032,1.6158,1.6163,1.6169,0,0,0,0,0,0,0,0,0,0,0,0,0,1.5674,1.5679,1.5925,1.5927,1.5928,1.6049,1.6051,1.6052,1.6038,1.6035,1.6033,1.6031,1.6157,1.6163,1.6169,0,0,0,0,0,0,0,0,0,0,0,0,0,1.5789,1.5681,1.5925,1.5936,1.5938,1.6049,1.6051,1.6053,1.6038,1.6035,1.6032,1.603,1.6154,1.6162,1.617,1.6278,0,0,1.6194,1.6197,0,0,0,0,0,0,0,0,1.5783,1.5799,1.5933,1.5935,1.5938,1.6025,1.6009,1.6128,1.6039,1.6,1.6032,1.6028,1.6116,1.6127,1.6157,1.6284,1.6289,1.6194,1.6199,1.6203,1.6205,0,0,0,0,0,0,0,1.5775,1.5793,1.5974,1.5935,1.5938,1.5934,1.5947,1.6031,1.6073,1.6003,1.6003,1.6017,1.6117,1.6149,1.616,1.6291,1.6194,1.6201,1.6206,1.6209,1.6511,1.6514,0,0,0,0,0,0,1.5764,1.5787,1.597,1.5978,1.5851,1.5941,1.5955,1.6,1.6073,1.6081,1.602,1.6016,1.6137,1.6151,1.6164,1.6295,1.6203,1.621,1.6214,1.6508,1.6512,1.6515,0,0,0,0,0,0,1.5759,1.5781,1.5965,1.5882,1.5905,1.5948,1.5998,1.6004,1.6036,1.6085,1.6092,1.6045,1.6136,1.6153,1.6249,1.6299,1.6213,1.6221,1.6504,1.6509,1.6513,1.6557,0,0,0,0,0,0,1.5752,1.5779,1.5821,1.5883,1.591,1.6049,1.6002,1.6009,1.605,1.6046,1.6111,1.6119,1.6135,1.6238,1.6257,1.6308,1.6227,1.6499,1.6506,1.6512,1.6551,1.6563,1.6573,0,0,0,0,0,1.5743,1.5829,1.5824,1.5846,1.5964,1.6052,1.6068,1.6084,1.6054,1.6096,1.6127,1.6116,1.629,1.6248,1.6269,1.6324,1.6496,1.6504,1.6511,1.6547,1.6561,1.6573,0,0,0,0,0,0,1.5773,1.5838,1.5832,1.5941,1.5991,1.605,1.6104,1.6099,1.6159,1.6153,1.6171,1.6186,1.6283,1.6313,1.6264,1.6431,1.6389,1.6401,1.6408,1.6422,1.6433,1.6424,1.6233,0,0,0,0,0,1.5792,1.5859,1.5912,1.6002,1.6028,1.6061,1.6101,1.6109,1.6162,1.6183,1.6221,1.6273,1.6338,1.6382,1.6445,1.6555,1.6568,1.6603,1.6613,1.6622,1.6632,1.6691,1.6707,1.654,1.654,1.6539,0,0,1.5832,1.5876,1.5917,1.6009,1.6049,1.6118,1.608,1.6154,1.6205,1.6194,1.6288,1.6317,1.6375,1.6478,1.6526,1.6506,1.6681,1.6631,1.6638,1.6644,1.6701,1.6716,1.6731,1.6545,1.6544,1.6543,0,0,1.5941,1.5981,1.606,1.61,1.6161,1.6182,1.6201,1.626,1.6279,1.6373,1.6366,1.6426,1.654,1.6581,1.6617,1.6738,1.673,1.6758,1.6814,1.6872,1.6885,1.6897,1.694,1.6955,1.6768,1.6768,1.6768,0,1.5984,1.6087,1.6102,1.6177,1.6217,1.6209,1.629,1.6328,1.6406,1.6434,1.641,1.6551,1.659,1.6702,1.6731,1.6761,1.6782,1.6752,1.6882,1.6894,1.6905,1.6946,1.6962,1.6771,1.6771,1.6771,1.677,0,1.6136,1.6207,1.6264,1.6339,1.6386,1.6463,1.6488,1.6533,1.6537,1.656,1.6654,1.67,1.6772,1.6799,1.6804,1.6911,1.6897,1.6878,1.6836,1.6924,1.6963,1.6978,1.6776,1.6774,1.6774,1.6773,0,0,1.627,1.635,1.6371,1.6404,1.6469,1.6524,1.6599,1.6669,1.6707,1.6761,1.6824,1.6919,1.6901,1.6941,1.695,1.7,1.7092,1.6974,1.6976,1.6995,1.7213,1.7228,1.7246,1.7086,1.7089,1.7092,1.7208,0,1.6385,1.652,1.6534,1.6654,1.6719,1.6712,1.6777,1.6824,1.6847,1.6905,1.693,1.6997,1.6968,1.6992,1.7041,1.7071,1.7136,1.7062,1.7146,1.7149,1.7133,1.7267,1.7284,1.7391,1.7223,1.7226,1.7228,0,1.6538,1.6595,1.6722,1.6776,1.6803,1.6863,1.6927,1.6983,1.7034,1.7047,1.7091,1.7093,1.717,1.7124,1.7229,1.7179,1.7213,1.7232,1.7237,1.7246,1.7195,1.728,1.7426,1.7442,1.7252,1.725,1.7248,0,1.6623,1.6731,1.682,1.6849,1.6914,1.6956,1.6985,1.7033,1.7074,1.7129,1.7155,1.7219,1.7254,1.7303,1.7321,1.7286,1.7426,1.7382,1.7439,1.7438,1.747,1.7468,1.7624,1.7491,1.749,1.749,1.749,0,1.6751,1.6829,1.6859,1.6914,1.7,1.7015,1.7099,1.7126,1.7169,1.7229,1.7225,1.7281,1.7301,1.7359,1.7374,1.7459,1.7474,1.7487,1.749,1.7488,1.7487,1.7512,1.7505,1.7494,1.7493,1.7493,1.7492,0,1.6862,1.6885,1.6982,1.7035,1.7049,1.7111,1.7156,1.7208,1.7229,1.7304,1.7323,1.7356,1.7425,1.7447,1.753,1.7539,1.7638,1.7634,1.7621,1.7622,1.7678,1.7673,1.7857,1.7882,1.7731,1.7732,1.7734,0,1.6942,1.7002,1.706,1.71,1.713,1.7194,1.7235,1.725,1.7293,1.7354,1.7399,1.7467,1.7522,1.7632,1.7663,1.7726,1.7724,1.7784,1.7734,1.7729,1.7726,1.7722,1.7728,1.7794,1.7796,1.7797,1.7798,0,1.7083,1.7091,1.715,1.7213,1.7262,1.7312,1.736,1.7392,1.7415,1.7462,1.7532,1.7575,1.7659,1.7726,1.779,1.7818,1.7812,1.7813,1.783,1.7829,1.7819,1.7826,1.7648,1.781,1.7808,1.7808,1.7807,1.7807,1.7182,1.7234,1.7283,1.7348,1.7385,1.743,1.7482,1.7508,1.7567,1.7637,1.7642,1.7717,1.7765,1.7849,1.7881,1.794,1.7923,1.7947,1.7953,1.7959,1.7964,1.7809,1.7951,1.7951,1.7951,1.795,1.795,0,1.7323,1.7353,1.7413,1.748,1.7531,1.7519,1.7572,1.7615,1.7681,1.7726,1.778,1.786,1.7924,1.7959,1.8023,1.8063,1.8062,1.8079,1.8077,1.8084,1.7975,1.7955,1.8079,1.8079,1.8079,1.8079,1.8079,1.8079,1.7403,1.749,1.7503,1.7608,1.7637,1.7711,1.7742,1.7782,1.7818,1.7907,1.796,1.7982,1.8023,1.8089,1.8148,1.8156,1.818,1.82,1.8207,1.8105,1.8092,1.8079,1.806,1.8205,1.8205,1.8311,1.8312,1.8312]}]]